Regional Weather Roundup
Issued by NWS Tiyan, Guam

Home | Current Version | Previous Version | Text Only | Print | Product List | Glossary On
Versions: 1 2 3 4 5 6 7 8 9 10 11 12 13 14 15 16 17 18 19 20 21 22 23 24 25 26 27
000
ASGM40 PGUM 240512
RWRGUM
WEATHER ROUNDUP FOR THE MARIANAS
NATIONAL WEATHER SERVICE TIYAN GU
300 PM CHST TUE OCT 24 2017

GUZ001>004-240600-
MARIANA ISLANDS-

CITY           SKY/WX    TMP DP  RH WIND       PRES   REMARKS
GUAM AIRPORT   PTSUNNY   82  79  89 SE25G41   29.71R HX  93
ANDERSEN AFB   LGT RAIN  79  75  89 SE33G53   29.71R
ROTA AIRPORT   PTSUNNY   82  77  83 SE25G36   29.72S HX  91
TINIAN AP      MOSUNNY   86  77  74 SE20      29.70S HX  97
SAIPAN AP      MOSUNNY   88  79  74 SE18G30   29.73R HX 102

$$





USA.gov is the U.S. government's official web portal to all federal, state and local government web resources and services.